Terminal Aerodrome Forecast
Issued by NWS

Home | Current Version | Previous Version | Text Only | Print | Product List | Glossary On
Versions: 1 2 3 4 5 6 7 8 9 10 11 12 13 14 15 16 17 18 19 20 21
000
FTUS41 KGYX 012300
TAFAUG
TAF
KAUG 012320Z 0200/0224 18008G16KT P6SM SCT045 SCT080 SCT250
     FM020400 VRB03KT 3SM BR BKN200
     FM020600 00000KT 1SM BR SCT002 SCT050 BKN200
     FM021200 19007KT P6SM BKN120=

USA.gov is the U.S. government's official web portal to all federal, state and local government web resources and services.